Weather History for Dubuque, IA

Change the Weather History Date:

Wednesday, February 27, 2013

  Actual Average Record
Temperature  
Mean Temperature 30 °F 28 °F  
Max Temperature 32 °F 36 °F 62 °F (1896)
Min Temperature 27 °F 20 °F -12 °F (1879)
Degree Days  
Heating Degree Days 35 37  
Month to date heating degree days 1166 1119  
Since 1 July heating degree days 5215 5356  
Cooling Degree Days 0 0  
Month to date cooling degree days 0 0  
Year to date cooling degree days 0 0  
Moisture  
Dew Point 28 °F    
Average Humidity 96    
Maximum Humidity 100    
Minimum Humidity 92    
Precipitation  
Precipitation 0.20 in 0.06 in 1.39 in (1948)
Month to date precipitation 1.67 1.38  
Year to date precipitation 3.39 2.55  
Snow  
Snow 3.00 in 0.20 in - ()
Month to date snowfall 15.4 8.7  
Since 1 July snowfall 41.2 33.3  
Snow Depth 5.00 in    
Sea Level Pressure  
Sea Level Pressure 29.73 in    
Wind  
Wind Speed 13 mph (North)    
Max Wind Speed 17 mph    
Max Gust Speed 22 mph    
Visibility 3 miles    
Events Fog , Snow    
T = Trace of Precipitation, MM = Missing Value Source: NWS Daily Summary

Daily Weather History Graph

Daily Weather History Graph

Search for Another Location

Airport:

Trip Planner

Search our weather history database for the weather conditions in past years. The results will help you decide how hot, cold, wet, or windy it might be!

Date:

Astronomy

Feb. 27, 2013 Rise Set
Actual Time 6:40 AM CST 5:50 PM CST
Civil Twilight 6:12 AM CST 6:18 PM CST
Nautical Twilight 5:40 AM CST 6:51 PM CST
Astronomical Twilight 5:07 AM CST 7:23 PM CST
Moon 8:16 PM CST (2/27) 7:13 AM CST (2/27)
Length of Visible Light 12h 06m
Length of Day
11h 09m
Waning Gibbous, 96% of the Moon is Illuminated
Feb 27
Waning Gibbous
Mar 4
Last Quarter
Mar 11
New
Mar 19
First Quarter
Mar 27
Full

Hourly Weather History & Observations

Time (CST) Temp. Windchill Dew Point Humidity Pressure Visibility Wind Dir Wind Speed Gust Speed Precip Events Conditions
12:51 AM 28.4 °F 18.0 °F 26.6 °F 93% 29.67 in 2.0 mi North 12.7 mph - 0.02 in Snow Light Snow
12:53 AM 28.0 °F 17.5 °F 27.0 °F 96% 29.70 in 2.0 mi North 12.7 mph - 0.02 in Snow Light Snow
1:15 AM 28.4 °F 18.0 °F 26.6 °F 93% 29.67 in 1.5 mi North 12.7 mph - 0.01 in Snow Light Snow
1:49 AM 28.4 °F 17.5 °F 26.6 °F 93% 29.66 in 2.5 mi North 13.8 mph - 0.02 in Snow Light Snow
1:53 AM 28.0 °F 18.1 °F 27.0 °F 96% 29.70 in 3.0 mi North 11.5 mph - 0.02 in Snow Light Snow
2:40 AM 28.4 °F 18.0 °F 26.6 °F 93% 29.65 in 9.0 mi North 12.7 mph 21.9 mph 0.00 in   Overcast
2:53 AM 28.0 °F 18.6 °F 26.1 °F 92% 29.69 in 10.0 mi North 10.4 mph - 0.00 in   Overcast
3:15 AM 28.4 °F 18.0 °F 26.6 °F 93% 29.65 in 2.5 mi North 12.7 mph - 0.00 in Snow Light Snow
3:45 AM 28.4 °F 17.5 °F 26.6 °F 93% 29.65 in 3.0 mi North 13.8 mph - 0.00 in Snow Light Snow
3:53 AM 27.0 °F 16.7 °F 26.1 °F 96% 29.68 in 4.0 mi North 11.5 mph - 0.00 in Snow Light Snow
4:45 AM 28.4 °F 18.0 °F 26.6 °F 93% 29.65 in 1.8 mi North 12.7 mph - 0.00 in Snow Light Snow
4:53 AM 28.0 °F 17.5 °F 26.1 °F 92% 29.68 in 1.5 mi North 12.7 mph - 0.00 in Snow Light Snow
5:53 AM 26.6 °F 14.7 °F 26.6 °F 100% 29.66 in 0.8 mi North 15.0 mph - N/A Snow Light Snow
6:53 AM 28.0 °F 17.5 °F 27.0 °F 96% 29.70 in 0.5 mi North 12.7 mph - 0.03 in Fog , Snow Snow
7:25 AM 28.4 °F 17.5 °F 26.6 °F 93% 29.67 in 1.0 mi North 13.8 mph - 0.02 in Snow Light Snow
7:39 AM 28.4 °F 18.0 °F 26.6 °F 93% 29.67 in 0.8 mi North 12.7 mph - 0.03 in Snow Light Snow
7:53 AM 28.0 °F 17.5 °F 27.0 °F 96% 29.71 in 0.8 mi North 12.7 mph - 0.03 in Snow Light Snow
8:53 AM 28.4 °F 17.5 °F 26.6 °F 93% 29.68 in 0.8 mi North 13.8 mph - N/A Snow Light Snow
9:50 AM 28.4 °F 17.0 °F 26.6 °F 93% 29.68 in 3.0 mi North 15.0 mph - 0.02 in Snow Light Snow
9:53 AM 28.9 °F 17.7 °F 27.0 °F 92% 29.72 in 2.5 mi North 15.0 mph - 0.02 in Snow Light Snow
9:58 AM 28.4 °F 18.5 °F 28.4 °F 100% 29.68 in 1.8 mi North 11.5 mph - 0.00 in Snow Light Snow
10:08 AM 30.2 °F 19.8 °F 26.6 °F 86% 29.68 in 2.5 mi North 13.8 mph - 0.00 in Snow Light Snow
10:11 AM 30.2 °F 20.2 °F 28.4 °F 93% 29.68 in 3.0 mi North 12.7 mph - 0.00 in Snow Light Snow
10:37 AM 30.2 °F 19.8 °F 26.6 °F 86% 29.68 in 2.0 mi North 13.8 mph - 0.00 in Snow Light Snow
10:45 AM 30.2 °F 21.3 °F 28.4 °F 93% 29.68 in 1.8 mi North 10.4 mph - 0.00 in Snow Light Snow
10:53 AM 30.0 °F 20.0 °F 28.0 °F 92% 29.71 in 2.5 mi North 12.7 mph - 0.00 in Snow Light Snow
11:30 AM 30.2 °F 19.3 °F 28.4 °F 93% 29.68 in 0.8 mi North 15.0 mph - 0.00 in Snow Light Snow
11:46 AM 30.2 °F 20.8 °F 28.4 °F 93% 29.68 in 1.0 mi North 11.5 mph - 0.00 in Snow Light Snow
11:53 AM 30.0 °F 19.5 °F 28.0 °F 92% 29.72 in 1.2 mi North 13.8 mph - 0.00 in Snow Light Snow
12:01 PM 30.2 °F 19.8 °F 28.4 °F 93% 29.68 in 2.0 mi North 13.8 mph - 0.00 in Snow Light Snow
12:15 PM 30.2 °F 19.8 °F 28.4 °F 93% 29.68 in 1.5 mi North 13.8 mph - 0.00 in Snow Light Snow
12:29 PM 30.2 °F 19.8 °F 28.4 °F 93% 29.68 in 2.0 mi North 13.8 mph - 0.01 in Snow Light Snow
12:53 PM 30.9 °F 19.8 °F 28.9 °F 92% 29.72 in 2.5 mi NNW 16.1 mph - 0.01 in Snow Light Snow
12:56 PM 30.2 °F 20.2 °F 28.4 °F 93% 29.68 in 3.0 mi NNW 12.7 mph - 0.00 in Snow Light Snow
1:03 PM 30.2 °F 19.3 °F 28.4 °F 93% 29.68 in 2.0 mi NNW 15.0 mph - 0.00 in Snow Light Snow
1:53 PM 30.9 °F 20.7 °F 28.9 °F 92% 29.73 in 2.0 mi NNW 13.8 mph - 0.00 in Snow Light Snow
1:55 PM 30.2 °F 20.2 °F 28.4 °F 93% 29.69 in 1.2 mi NNW 12.7 mph - 0.00 in Snow Light Snow
1:59 PM 30.2 °F 19.8 °F 28.4 °F 93% 29.69 in 1.2 mi NNW 13.8 mph - 0.00 in Snow Light Snow
2:53 PM 30.9 °F 20.7 °F 28.9 °F 92% 29.73 in 2.0 mi NNW 13.8 mph - 0.00 in Snow Light Snow
2:58 PM 30.2 °F 18.9 °F 28.4 °F 93% 29.70 in 3.0 mi North 16.1 mph - 0.00 in Snow Light Snow
3:13 PM 32.0 °F 21.6 °F 28.4 °F 87% 29.70 in 2.5 mi NNW 15.0 mph - 0.00 in Snow Light Snow
3:22 PM 32.0 °F 21.6 °F 28.4 °F 87% 29.70 in 4.0 mi North 15.0 mph - 0.00 in Snow Light Snow
3:39 PM 32.0 °F 21.6 °F 28.4 °F 87% 29.71 in 4.0 mi NNW 15.0 mph - 0.00 in Snow Light Snow
3:44 PM 32.0 °F 22.1 °F 28.4 °F 87% 29.71 in 2.5 mi NNW 13.8 mph - 0.00 in Snow Light Snow
3:53 PM 30.9 °F 20.2 °F 28.9 °F 92% 29.75 in 1.8 mi NNW 15.0 mph - 0.00 in Snow Light Snow
4:53 PM 30.9 °F 20.7 °F 30.0 °F 96% 29.77 in 2.0 mi NNW 13.8 mph - 0.00 in Snow Light Snow
5:01 PM 30.2 °F 20.2 °F 28.4 °F 93% 29.74 in 3.0 mi NNW 12.7 mph - 0.00 in Snow Light Snow
5:05 PM 30.2 °F 20.2 °F 28.4 °F 93% 29.74 in 4.0 mi NNW 12.7 mph - 0.00 in Snow Light Snow
5:20 PM 30.2 °F 20.2 °F 28.4 °F 93% 29.75 in 10.0 mi NNW 12.7 mph - 0.00 in   Overcast
5:38 PM 30.2 °F 19.8 °F 28.4 °F 93% 29.75 in 1.8 mi NNW 13.8 mph - 0.00 in Snow Light Snow
5:53 PM 30.9 °F 20.2 °F 28.9 °F 92% 29.80 in 1.8 mi NNW 15.0 mph - 0.00 in Snow Light Snow
5:57 PM 30.2 °F 19.3 °F 28.4 °F 93% 29.76 in 3.0 mi NNW 15.0 mph - 0.00 in Snow Light Snow
6:21 PM 30.2 °F 20.8 °F 28.4 °F 93% 29.77 in 3.0 mi NNW 11.5 mph - 0.00 in Snow Light Snow
6:31 PM 30.2 °F 19.3 °F 28.4 °F 93% 29.77 in 2.5 mi NNW 15.0 mph - 0.00 in Snow Light Snow
6:53 PM 30.0 °F 19.1 °F 30.0 °F 100% 29.81 in 2.5 mi North 15.0 mph - 0.00 in Snow Light Snow
7:07 PM 30.2 °F 19.8 °F 30.2 °F 100% 29.77 in 3.0 mi North 13.8 mph - 0.00 in Snow Light Snow
7:53 PM 30.0 °F 19.1 °F 28.9 °F 96% 29.82 in 3.0 mi North 15.0 mph - 0.00 in Snow Light Snow
8:13 PM 30.2 °F 20.2 °F 28.4 °F 93% 29.78 in 2.5 mi North 12.7 mph - 0.00 in Snow Light Snow
8:23 PM 30.2 °F 20.8 °F 28.4 °F 93% 29.79 in 3.0 mi North 11.5 mph - 0.00 in Snow Light Snow
8:33 PM 30.2 °F 20.8 °F 30.2 °F 100% 29.79 in 4.0 mi North 11.5 mph - 0.00 in Snow Light Snow
8:53 PM 30.9 °F 21.7 °F 30.0 °F 96% 29.83 in 5.0 mi NNW 11.5 mph - 0.00 in Snow Light Snow
9:03 PM 30.2 °F 21.3 °F 30.2 °F 100% 29.80 in 5.0 mi NNW 10.4 mph - 0.00 in Snow Light Snow
9:09 PM 30.2 °F 20.8 °F 30.2 °F 100% 29.80 in 4.0 mi NNW 11.5 mph - 0.00 in Snow Light Snow
9:34 PM 30.2 °F 20.8 °F 30.2 °F 100% 29.80 in 6.0 mi NNW 11.5 mph - 0.00 in Snow Light Snow
9:40 PM 30.2 °F 19.8 °F 30.2 °F 100% 29.80 in 4.0 mi North 13.8 mph - 0.00 in Snow Light Snow
9:53 PM 30.9 °F 20.7 °F 30.0 °F 96% 29.84 in 4.0 mi North 13.8 mph - 0.00 in Snow Light Snow
10:53 PM 30.9 °F 21.2 °F 30.0 °F 96% 29.85 in 7.0 mi North 12.7 mph - 0.00 in   Overcast
11:53 PM 30.9 °F 21.2 °F 28.9 °F 92% 29.85 in 4.0 mi North 12.7 mph - 0.00 in Snow Light Snow